Regional Weather Roundup
Issued by NWS

Home | Current Version | Previous Version | Graphics & Text | Print | Product List | Glossary On
Versions: 1 2 3 4 5 6 7 8 9 10 11 12 13 14 15 16 17 18 19 20 21 22 23 24 25 26 27 28 29 30 31 32 33 34 35 36 37 38 39 40 41 42 43 44 45 46 47 48 49 50
813
ASUS43 KMKX 241400
RWRWI

WISCONSIN REGIONAL WEATHER ROUNDUP
NATIONAL WEATHER SERVICE MILWAUKEE/SULLIVAN WI
900 AM CDT MON APR 24 2017

NOTE: "FAIR" INDICATES FEW OR NO CLOUDS BELOW 12,000 FEET WITH NO
SIGNIFICANT WEATHER AND/OR OBSTRUCTIONS TO VISIBILITY.

WIZ001-002-006>008-014>016-023>028-241500-
NORTHWEST WISCONSIN

CITY           SKY/WX    TMP DP  RH WIND       PRES   REMARKS
SUPERIOR ARPT  CLOUDY    36  28  74 E18G28    29.92F WCI  25
ASHLAND        MOSUNNY   39  26  59 NE9       29.94F WCI  33
HAYWARD        CLOUDY    43  32  65 SE6       29.88F
SIREN          CLOUDY    45  36  71 SE6       29.83F
CUMBERLAND     CLOUDY    41  34  75 SE13      29.86F
RICE LAKE      CLOUDY    43  34  71 SE13      29.89S
CHETEK         CLOUDY    42  35  76 SE8       29.89F
LADYSMITH      CLOUDY    44  33  66 SE8       29.92F
EAU CLAIRE     NOT AVBL
MENOMONIE      CLOUDY    47  38  72 E10       29.87F
NEW RICHMOND   MOSUNNY   48  38  69 SE9       29.84S
OSCEOLA        CLOUDY    50  40  69 SE14      29.85F
$$

WIZ003>005-009-010-017-018-241500-
NORTH CENTRAL WISCONSIN

CITY           SKY/WX    TMP DP  RH WIND       PRES   REMARKS
MANITOWISH WTR MOSUNNY   38  28  66 SE10      29.94S WCI  31
ARBOR VITAE    CLOUDY    37  27  67 SE10      29.94F WCI  30
WOODRUFF       CLOUDY    37  27  67 SE10      29.94F WCI  30
RHINELANDER    MOSUNNY   40  29  64 SE9       29.97F WCI  34
EAGLE RIVER    CLOUDY    34  24  66 SE10      29.97F WCI  26
LAND O LAKES   CLOUDY    36  26  66 SE8       29.99F WCI  29
PHILLIPS       MOSUNNY   39  30  70 SE8       29.92F WCI  34
TOMAHAWK       CLOUDY    38  29  70 SE5       29.97F WCI  34
MEDFORD        CLOUDY    37  30  75 SE9       29.94F WCI  31
MERRILL        CLOUDY    40  30  69 SE8       29.98F WCI  34
$$

WIZ029-030-035-036-043>047-241500-
CENTRAL WISCONSIN

CITY           SKY/WX    TMP DP  RH WIND       PRES   REMARKS
WAUSAU         CLOUDY    40  30  67 SE9       29.97F WCI  34
MOSINEE        CLOUDY    39  32  75 SE8       29.99F WCI  34
MARSHFIELD     MOSUNNY   42  33  70 SE14      29.95F
STEVENS POINT  MOSUNNY   39  31  72 E7        30.00F WCI  34
WAUPACA        MOSUNNY   46  34  65 E5        30.02S
WAUTOMA        NOT AVBL
WISC RAPIDS    MOSUNNY   45  34  65 SE7       29.99S
CAMP DOUGLAS   NOT AVBL
$$

WIZ011>013-019>022-031-037>040-048>050-241500-
NORTHEAST WISCONSIN

CITY           SKY/WX    TMP DP  RH WIND       PRES   REMARKS
ANTIGO         MOSUNNY   36  30  77 SE10      29.99F WCI  29
SHAWANO        MOSUNNY   42  34  74 E6        30.04F
OCONTO         SUNNY     43  34  71 E6        30.04F
STURGEON BAY   SUNNY     46  37  71 SE7       30.06S
GREEN BAY      SUNNY     46  38  73 VRB6      30.04S
MANITOWOC      NOT AVBL
APPLETON       MOSUNNY   45  32  61 E6        30.01S
CLINTONVILLE   MOSUNNY   43  32  65 E5        30.02F
OSHKOSH        SUNNY     49  36  61 S5        30.01S
$$

WIZ032>034-041-042-053>061-241500-
SOUTHWEST WISCONSIN

CITY           SKY/WX    TMP DP  RH WIND       PRES   REMARKS
LA CROSSE      MOSUNNY   52  41  66 E7        29.92S
SPARTA         MOSUNNY   51  38  62 E5        29.94F
VIROQUA        MOSUNNY   49  38  65 SE13      29.94S
BOSCOBEL       CLOUDY    55  41  59 N3        29.96S
PRAIRIE DU CHI CLOUDY    56  37  49 SE6       29.93F
PLATTEVILLE    MOSUNNY   56  33  41 S14       29.97S
$$

WIZ056-057-062-063-064-067-068-241500-
SOUTH CENTRAL WISCONSIN

CITY           SKY/WX    TMP DP  RH WIND       PRES   REMARKS
REEDSBURG      SUNNY     48  38  68 SE3       29.98S
BARABOO/DELLS  SUNNY     48  36  62 S3        29.98S
LONE ROCK      NOT AVBL
MINERAL POINT  CLOUDY    54  34  47 SE12G18   29.97S
MADISON        CLOUDY    48  37  65 S10       30.00F
MIDDLETON      CLOUDY    52  39  61 SE6       30.00F
WATERTOWN      SUNNY     47  38  72 SE5       30.01F
MONROE         CLOUDY    50  39  66 SE8       29.99S
JANESVILLE     MOSUNNY   52  39  62 SE9       30.00F
$$

WIZ051-052-058>065-066-070>072-241500-
SOUTHEAST WISCONSIN

CITY           SKY/WX    TMP DP  RH WIND       PRES   REMARKS
MILWAUKEE      MOSUNNY   50  40  68 E8        30.04R
WAUKESHA       SUNNY     48  36  61 SE5       30.06R
MILWAUKEE/TIMM SUNNY     48  34  57 SE5       30.04S
RACINE         SUNNY     49  40  71 SE5       30.05S
KENOSHA        SUNNY     51  41  68 VRB3      30.03S
FOND DU LAC    SUNNY     53  37  54 S9        30.00F
SHEBOYGAN      SUNNY     50  42  74 S8        30.02F
WEST BEND      SUNNY     46  37  71 CALM      30.03S
JUNEAU         SUNNY     47  37  68 SE5       30.02F
$$

LSZ147-162-241500-
LAKE SUPERIOR

STATION/POSITION TIME  TEMP    WIND        PRES    WAVE
                       AIR SEA DIR/SP/G            HT/PER
                 (UTC) (F)     (DEG/KT/KT) (MB)    (FT/S)
DEVILS ISLAND    1300   35      90/ 23/ 25 1016.2F
SAXON HARBOR     1330   38      40/  9/ 12 1013.5F
$$

LMZ867-665-643>646-241500-
LAKE MICHIGAN

STATION/POSITION TIME  TEMP    WIND        PRES    WAVE
                       AIR SEA DIR/SP/G            HT/PER
                 (UTC) (F)     (DEG/KT/KT) (MB)    (FT/S)
CHAMBERS ISLAND  1340   40      40/  4/  8 1017.6S
N MID LAKE BUOY  1250   37 37  100/ 12/ 14 1019.4R   2/ 4
NORTHPORT PIER   1340   38      90/  7/ 10 1018.3R
KEWAUNEE LAKESHO 1330   44      90/  2/  6 1017.1R
SHEBOYGAN LAKESH 1300   43     170/  9/ 10 1017.3F
PORT WASHINGTON  1340   48      60/  2/  3 1018.3R
MILWAUKEE LAKESH 1330   42      50/  5/  6   N/A
S MID LAKE BUOY  1250   42 40   60/  6/  8 1018.0R   2/ 6
KENOSHA   LAKESH 1300   43      40/  5/  6 1017.3
$$

TC  - TEMPERATURE IN CELSIUS
VSB - VISIBILITY IN STATUTE MILES
WCI - WIND CHILL INDEX
HX  - HEAT INDEX





USA.gov is the U.S. government's official web portal to all federal, state and local government web resources and services.